* Astronomy

Members Login
Username 
 
Password 
    Remember Me  
Post Info TOPIC: Asteroid 2011 EE17


L

Posts: 131433
Date:
RE: Asteroid 2011 EE17
Permalink  
 


The 81 - 180 metre wide asteroid 2011 EE17 will make a close pass (43.4 lunar distances, 0.1114 AU), travelling at 10.77 km/second, to the Earth-Moon system on the 18th March, 2011 @ 07:42 UT ±02:44.

See more

The Lunar Distance (LD), the distance between Earth and the Moon, equals 384,401 km, (or 0.00256 AU).


__________________


L

Posts: 131433
Date:
Permalink  
 

Orbital elements:
2011 EE17 Earth MOID = 0.0344 AU
Epoch 2011 Feb. 8.0 TT = JDT 2455600.5 MPC
M 266.37181 (2000.0) P Q
n 0.81079003 Peri. 94.69451 -0.11071436 +0.99180703
a 1.1390176 Node 168.35544 -0.99009940 -0.10450223
e 0.2412958 Incl. 18.40495 -0.08628734 -0.07347171
P 1.22 H 22.6 G 0.15 U 8

MPEC 2011 - E38


__________________
Page 1 of 1  sorted by
 
Quick Reply

Please log in to post quick replies.



Create your own FREE Forum
Report Abuse
Powered by ActiveBoard